TimeAKST,TemperatureF,Dew PointF,Humidity,Sea Level PressureIn,VisibilityMPH,Wind Direction,Wind SpeedMPH,Gust SpeedMPH,PrecipitationIn,Events,Conditions,WindDirDegrees,DateUTC
12:36 AM,12.2,10.4,92,29.53,1.5,South,12.7,-,0.01,Snow,Light Snow,170,2013-02-15 09:36:00
12:53 AM,12.0,10.0,92,29.55,1.8,South,11.5,-,0.01,Snow,Light Snow,170,2013-02-15 09:53:00
1:00 AM,12.2,10.4,92,29.55,2.5,SSE,10.4,-,0.00,Snow,Light Snow,160,2013-02-15 10:00:00
1:17 AM,8.6,6.8,92,29.56,2.0,SSE,9.2,-,0.00,Snow,Light Snow,150,2013-02-15 10:17:00
1:38 AM,8.6,6.8,92,29.57,1.8,SSE,9.2,-,0.00,Snow,Light Snow,150,2013-02-15 10:38:00
1:51 AM,8.6,6.8,92,29.57,2.5,South,10.4,-,0.00,Snow,Light Snow,170,2013-02-15 10:51:00
1:53 AM,9.0,7.0,92,29.57,2.5,South,10.4,-,0.00,Snow,Light Snow,170,2013-02-15 10:53:00
2:15 AM,8.6,6.8,92,29.58,2.0,South,10.4,-,0.00,Snow,Light Snow,180,2013-02-15 11:15:00
3:03 AM,6.8,3.2,85,29.60,2.5,South,9.2,-,0.00,Snow,Light Snow,190,2013-02-15 12:03:00
3:46 AM,3.2,1.4,92,29.61,1.8,SSW,9.2,-,0.01,Snow,Light Snow,200,2013-02-15 12:46:00
3:53 AM,3.9,1.9,91,29.62,1.8,South,9.2,-,0.01,Snow,Light Snow,190,2013-02-15 12:53:00
4:49 AM,3.2,1.4,92,29.63,2.5,South,9.2,-,0.00,Snow,Light Snow,190,2013-02-15 13:49:00
4:53 AM,3.9,1.0,88,29.63,3.0,South,10.4,-,0.00,Snow,Light Snow,190,2013-02-15 13:53:00
5:02 AM,3.2,1.4,92,29.63,2.0,SSW,8.1,-,0.00,Snow,Light Snow,200,2013-02-15 14:02:00
5:12 AM,3.2,1.4,92,29.63,1.8,SSW,9.2,-,0.00,Snow,Light Snow,200,2013-02-15 14:12:00
5:19 AM,3.2,1.4,92,29.63,2.5,SSW,8.1,-,0.00,Snow,Light Snow,210,2013-02-15 14:19:00
5:41 AM,3.2,1.4,92,29.64,2.5,SSW,9.2,-,0.00,Snow,Light Snow,200,2013-02-15 14:41:00
5:49 AM,3.2,1.4,92,29.64,3.0,SSW,10.4,-,0.00,Snow,Light Snow,200,2013-02-15 14:49:00
5:53 AM,3.9,1.0,88,29.64,3.0,SSW,9.2,-,0.00,Snow,Light Snow,210,2013-02-15 14:53:00
6:16 AM,3.2,1.4,92,29.65,2.0,SSW,9.2,-,0.00,Snow,Light Snow,200,2013-02-15 15:16:00
6:29 AM,3.2,1.4,92,29.65,2.5,SSW,9.2,-,0.00,Snow,Light Snow,200,2013-02-15 15:29:00
6:45 AM,3.2,1.4,92,29.65,2.5,SSW,9.2,-,0.00,Snow,Light Snow,200,2013-02-15 15:45:00
6:53 AM,3.9,1.0,88,29.66,3.0,SSW,8.1,-,0.00,Snow,Light Snow,200,2013-02-15 15:53:00
7:18 AM,3.2,1.4,92,29.67,2.5,SSW,9.2,-,0.00,Snow,Light Snow,200,2013-02-15 16:18:00
7:32 AM,3.2,1.4,92,29.67,1.8,SSW,8.1,-,0.00,Snow,Light Snow,200,2013-02-15 16:32:00
7:46 AM,3.2,1.4,92,29.68,2.5,SSW,9.2,-,0.00,Snow,Light Snow,200,2013-02-15 16:46:00
7:53 AM,3.9,1.0,88,29.68,2.0,SSW,9.2,-,0.00,Snow,Light Snow,200,2013-02-15 16:53:00
8:00 AM,3.2,1.4,92,29.68,1.5,SSW,9.2,-,0.00,Snow,Light Snow,200,2013-02-15 17:00:00
8:16 AM,3.2,1.4,92,29.69,3.0,South,9.2,-,0.00,Snow,Light Snow,190,2013-02-15 17:16:00
8:53 AM,3.0,-0.0,87,29.71,3.0,SSW,6.9,-,0.00,Snow,Light Snow,200,2013-02-15 17:53:00
9:05 AM,3.2,-0.4,85,29.71,2.5,South,5.8,-,0.00,Snow,Light Snow,190,2013-02-15 18:05:00
9:51 AM,3.2,-0.4,85,29.74,2.0,South,9.2,-,0.00,Snow,Light Snow,180,2013-02-15 18:51:00
9:53 AM,3.0,-0.0,87,29.74,1.8,South,9.2,-,0.00,Snow,Light Snow,180,2013-02-15 18:53:00
10:28 AM,1.4,-0.4,92,29.76,0.8,SSE,8.1,-,0.00,Snow,Light Snow,160,2013-02-15 19:28:00
10:37 AM,3.2,-0.4,85,29.76,1.2,South,8.1,-,0.01,Snow,Light Snow,180,2013-02-15 19:37:00
10:53 AM,3.0,-0.0,87,29.77,1.8,South,8.1,-,0.01,Snow,Light Snow,180,2013-02-15 19:53:00
11:53 AM,1.9,-0.9,88,29.80,1.2,SSE,5.8,-,0.00,Snow,Light Snow,150,2013-02-15 20:53:00
12:53 PM,1.9,-0.9,88,29.83,1.5,SE,6.9,-,0.00,Snow,Light Snow,140,2013-02-15 21:53:00
1:26 PM,1.4,-0.4,92,29.85,2.0,SE,5.8,-,0.00,Snow,Light Snow,140,2013-02-15 22:26:00
1:37 PM,1.4,-0.4,92,29.86,4.0,SE,4.6,-,0.00,Snow,Light Snow,130,2013-02-15 22:37:00
1:42 PM,1.4,-0.4,92,29.86,1.8,SE,5.8,-,0.00,Snow,Light Snow,130,2013-02-15 22:42:00
1:53 PM,1.9,-2.0,83,29.87,1.2,SE,6.9,-,0.00,Snow,Light Snow,140,2013-02-15 22:53:00
2:03 PM,1.4,-2.2,85,29.87,2.5,SE,6.9,-,0.00,Snow,Light Snow,140,2013-02-15 23:03:00
2:14 PM,1.4,-2.2,85,29.88,3.0,SSE,8.1,-,0.00,Snow,Light Snow,150,2013-02-15 23:14:00
2:22 PM,1.4,-2.2,85,29.88,1.8,SE,9.2,-,0.00,Snow,Light Snow,140,2013-02-15 23:22:00
2:34 PM,1.4,-2.2,85,29.89,1.2,SE,8.1,-,0.00,Snow,Light Snow,140,2013-02-15 23:34:00
2:53 PM,1.0,-2.9,83,29.90,1.0,SE,8.1,-,0.00,Snow,Light Snow,140,2013-02-15 23:53:00
3:32 PM,1.4,-2.2,85,29.92,2.0,SE,6.9,-,0.01,Snow,Light Snow,140,2013-02-16 00:32:00
3:53 PM,-0.0,-2.9,88,29.93,1.0,SE,8.1,-,0.01,Snow,Light Snow,140,2013-02-16 00:53:00
3:57 PM,-0.4,-2.2,92,29.93,0.8,SE,5.8,-,0.00,Snow,Light Snow,130,2013-02-16 00:57:00
4:07 PM,-0.4,-2.2,92,29.93,1.0,SE,8.1,-,0.00,Snow,Light Snow,140,2013-02-16 01:07:00
5:05 PM,-0.4,-5.8,78,29.96,0.8,SE,6.9,-,0.00,Snow,Light Snow,140,2013-02-16 02:05:00
5:28 PM,-0.4,-5.8,78,29.97,1.0,SE,4.6,-,0.00,Snow,Light Snow,130,2013-02-16 02:28:00
5:53 PM,-0.9,-5.1,83,29.98,1.5,SE,5.8,-,0.00,Snow,Light Snow,130,2013-02-16 02:53:00
6:02 PM,-2.2,-5.8,85,29.98,1.8,SE,5.8,-,0.00,Snow,Light Snow,130,2013-02-16 03:02:00
6:09 PM,-2.2,-5.8,85,29.98,3.0,SE,5.8,-,0.00,Snow,Light Snow,130,2013-02-16 03:09:00
6:53 PM,-4.0,-7.1,87,30.01,4.0,ESE,3.5,-,0.00,Snow,Light Snow,110,2013-02-16 03:53:00
7:53 PM,-6.0,-11.0,79,30.03,9.0,SSE,8.1,-,0.00,,Mostly Cloudy,150,2013-02-16 04:53:00
8:53 PM,-9.0,-14.1,79,30.06,9.0,South,6.9,-,N/A,,Overcast,180,2013-02-16 05:53:00
9:53 PM,-9.0,-14.1,79,30.07,9.0,SSE,8.1,-,N/A,,Clear,160,2013-02-16 06:53:00
10:53 PM,-11.9,-16.1,82,30.09,9.0,SW,4.6,-,N/A,,Overcast,220,2013-02-16 07:53:00
11:53 PM,-15.0,-17.0,91,30.10,9.0,NW,5.8,-,N/A,,Clear,320,2013-02-16 08:53:00